Location: Brienzwiler
(46.7508°N, 8.1014°E)
Time: 01:33:36
(UTC+00:00)

SL-16 R/B - Pass Details

Date: 05 July 2020
Orbit: 839 x 850 km, 71.0° (Epoch: 11 August)

Event Time Altitude Azimuth Distance (km) Brightness Sun altitude
Exits shadow 21:18:51 10° 104° (ESE) 2,455 4.2 -14.3°
Maximum altitude 21:19:49 11° 94° (E) 2,426 4.3 -14.4°
Drops below altitude 10° 21:20:57 10° 83° (E) 2,470 4.4 -14.5°
Sets 21:25:46 0° 46° (NE) 3,417 5.5 -14.9°
